Location: Newark
(45.8667°N, 9.7333°E)
Time: 10:33:24
(UTC+00:00)

Vanguard 3 - Pass Details

Date: 01 February 2020
Orbit: 508 x 3263 km, 33.3° (Epoch: 25 February)

Event Time Altitude Azimuth Distance (km) Brightness Sun altitude
Rises 18:10:40 0° 266° (W) 6,955 13.6 -18.4°
Reaches altitude 10° 18:15:18 10° 262° (W) 6,093 12.8 -19.2°
Maximum altitude 18:33:58 51° 195° (SSW) 3,643 10.4 -22.4°
Enters shadow 18:46:37 18° 130° (SE) 4,612 10.5 -24.6°
Drops below altitude 10° 18:49:16 10° 126° (SE) 5,082 - -25.1°
Sets 18:52:44 0° 121° (ESE) 5,778 - -25.7°
